TimeCDT,TemperatureF,Dew PointF,Humidity,Sea Level PressureIn,VisibilityMPH,Wind Direction,Wind SpeedMPH,Gust SpeedMPH,PrecipitationIn,Events,Conditions,WindDirDegrees,DateUTC
12:15 AM,40.3,39.2,96,29.76,10.0,Calm,Calm,-,N/A,,Overcast,0,2013-10-18 05:15:00
12:35 AM,41.2,39.7,95,29.76,10.0,Calm,Calm,-,N/A,,Light Drizzle,0,2013-10-18 05:35:00
12:55 AM,41.0,39.6,95,29.76,10.0,Calm,Calm,-,N/A,Rain,Light Rain,0,2013-10-18 05:55:00
1:15 AM,41.4,40.6,97,29.76,10.0,Calm,Calm,-,N/A,Rain,Light Rain,0,2013-10-18 06:15:00
1:35 AM,41.9,41.0,97,29.76,10.0,Calm,Calm,-,N/A,,Light Drizzle,0,2013-10-18 06:35:00
1:55 AM,41.9,41.4,98,29.76,7.0,Calm,Calm,-,N/A,Rain,Light Rain,0,2013-10-18 06:55:00
2:15 AM,41.4,41.2,99,29.75,5.0,Calm,Calm,-,N/A,Rain,Rain,0,2013-10-18 07:15:00
2:35 AM,41.5,41.4,99,29.75,5.0,Calm,Calm,-,N/A,,Overcast,0,2013-10-18 07:35:00
2:55 AM,41.9,41.5,99,29.75,7.0,Calm,Calm,-,N/A,,Overcast,0,2013-10-18 07:55:00
3:15 AM,41.9,41.5,99,29.74,5.0,Calm,Calm,-,N/A,,Drizzle,0,2013-10-18 08:15:00
3:35 AM,41.5,41.4,99,29.74,5.0,Calm,Calm,-,N/A,,Drizzle,0,2013-10-18 08:35:00
3:55 AM,41.4,41.2,99,29.73,5.0,Calm,Calm,-,N/A,,Drizzle,0,2013-10-18 08:55:00
4:15 AM,41.4,41.2,99,29.74,5.0,Calm,Calm,-,N/A,,Drizzle,0,2013-10-18 09:15:00
4:35 AM,41.4,41.2,99,29.73,5.0,Calm,Calm,-,N/A,,Light Drizzle,0,2013-10-18 09:35:00
4:55 AM,41.9,41.7,99,29.73,5.0,Calm,Calm,-,N/A,,Overcast,0,2013-10-18 09:55:00
5:15 AM,41.7,41.5,99,29.73,5.0,Calm,Calm,-,N/A,,Overcast,0,2013-10-18 10:15:00
5:35 AM,41.4,41.2,99,29.73,5.0,Calm,Calm,-,N/A,,Overcast,0,2013-10-18 10:35:00
5:55 AM,41.5,41.5,100,29.74,5.0,Calm,Calm,-,N/A,,Overcast,0,2013-10-18 10:55:00
6:15 AM,41.5,41.5,100,29.74,4.0,Calm,Calm,-,N/A,,Light Drizzle,0,2013-10-18 11:15:00
6:35 AM,41.9,41.5,99,29.74,5.0,Calm,Calm,-,N/A,,Light Drizzle,0,2013-10-18 11:35:00
6:55 AM,41.5,41.5,100,29.75,4.0,Calm,Calm,-,N/A,Rain,Rain,0,2013-10-18 11:55:00
7:15 AM,41.5,41.4,99,29.75,5.0,Calm,Calm,-,N/A,,Drizzle,0,2013-10-18 12:15:00
7:35 AM,41.9,41.5,99,29.76,5.0,Calm,Calm,-,N/A,,Light Drizzle,0,2013-10-18 12:35:00
7:55 AM,41.9,41.5,99,29.76,5.0,Calm,Calm,-,N/A,,Overcast,0,2013-10-18 12:55:00
8:15 AM,41.9,41.9,100,29.77,5.0,NW,3.5,-,N/A,,Drizzle,320,2013-10-18 13:15:00
8:35 AM,42.1,41.9,99,29.78,7.0,NNW,3.5,-,N/A,,Light Drizzle,340,2013-10-18 13:35:00
8:55 AM,42.3,41.9,99,29.78,7.0,Calm,Calm,-,N/A,,Light Drizzle,0,2013-10-18 13:55:00
9:15 AM,43.0,42.1,97,29.79,10.0,NW,3.5,-,N/A,Rain,Light Rain,310,2013-10-18 14:15:00
9:35 AM,43.3,42.1,95,29.80,10.0,NNW,4.6,-,N/A,,Light Drizzle,330,2013-10-18 14:35:00
9:55 AM,43.7,42.1,94,29.80,10.0,NW,3.5,-,N/A,Rain,Rain,320,2013-10-18 14:55:00
10:15 AM,43.7,42.3,95,29.80,10.0,NNW,3.5,-,N/A,Rain,Rain,330,2013-10-18 15:15:00
10:35 AM,43.9,42.6,95,29.81,10.0,NW,4.6,-,N/A,Rain,Light Rain,320,2013-10-18 15:35:00
10:55 AM,44.2,42.6,94,29.81,10.0,NW,5.8,-,N/A,Rain,Light Rain,310,2013-10-18 15:55:00
11:15 AM,44.6,43.0,94,29.81,10.0,WNW,4.6,-,N/A,Rain,Rain,290,2013-10-18 16:15:00
11:35 AM,44.6,43.0,94,29.82,10.0,WNW,8.1,-,N/A,Rain,Rain,300,2013-10-18 16:35:00
11:55 AM,44.6,42.3,91,29.82,10.0,NNW,9.2,-,N/A,Rain,Rain,330,2013-10-18 16:55:00
12:15 PM,43.9,41.7,92,29.82,7.0,NNW,10.4,-,N/A,Rain,Rain,330,2013-10-18 17:15:00
12:35 PM,43.5,41.5,93,29.83,5.0,NNW,11.5,-,N/A,Rain,Light Rain,330,2013-10-18 17:35:00
12:55 PM,43.0,40.5,91,29.82,5.0,NNW,11.5,-,N/A,,Light Drizzle,330,2013-10-18 17:55:00
1:15 PM,42.8,40.1,90,29.83,7.0,NNW,10.4,19.6,N/A,,Overcast,330,2013-10-18 18:15:00
1:35 PM,42.1,38.8,88,29.83,10.0,NNW,11.5,-,N/A,,Overcast,340,2013-10-18 18:35:00
1:55 PM,42.6,38.3,85,29.83,10.0,NW,10.4,16.1,N/A,,Light Drizzle,320,2013-10-18 18:55:00
2:15 PM,41.9,37.8,85,29.84,10.0,NNW,9.2,-,N/A,,Overcast,330,2013-10-18 19:15:00
2:35 PM,42.8,37.8,82,29.84,10.0,North,11.5,-,N/A,,Overcast,350,2013-10-18 19:35:00
2:55 PM,43.0,37.2,80,29.84,10.0,NNW,9.2,-,N/A,,Overcast,330,2013-10-18 19:55:00
3:15 PM,42.3,36.3,79,29.85,10.0,NW,8.1,16.1,N/A,,Overcast,320,2013-10-18 20:15:00
3:35 PM,42.1,36.5,81,29.86,10.0,NW,10.4,-,N/A,,Overcast,320,2013-10-18 20:35:00
3:55 PM,41.9,35.2,77,29.87,10.0,NW,6.9,-,N/A,,Overcast,320,2013-10-18 20:55:00
4:15 PM,41.0,37.2,86,29.86,7.0,WNW,3.5,-,N/A,,Light Drizzle,300,2013-10-18 21:15:00
4:35 PM,41.5,36.5,82,29.86,10.0,NW,6.9,-,N/A,,Overcast,310,2013-10-18 21:35:00
4:55 PM,41.5,37.2,85,29.87,10.0,WNW,9.2,-,N/A,,Overcast,300,2013-10-18 21:55:00
5:15 PM,40.3,36.5,86,29.87,10.0,NW,3.5,-,N/A,,Overcast,320,2013-10-18 22:15:00
5:35 PM,40.6,36.1,84,29.87,10.0,NW,3.5,-,N/A,,Overcast,310,2013-10-18 22:35:00
5:55 PM,39.4,35.6,86,29.87,10.0,Calm,Calm,-,N/A,,Mostly Cloudy,0,2013-10-18 22:55:00
6:15 PM,38.7,35.6,89,29.88,10.0,Calm,Calm,-,N/A,,Scattered Clouds,0,2013-10-18 23:15:00
6:35 PM,37.2,34.9,91,29.87,10.0,Calm,Calm,-,N/A,,Clear,0,2013-10-18 23:35:00
6:55 PM,34.7,33.6,96,29.88,10.0,Calm,Calm,-,N/A,,Clear,0,2013-10-18 23:55:00
7:15 PM,34.7,34.2,98,29.88,10.0,Calm,Calm,-,N/A,,Clear,0,2013-10-19 00:15:00
7:35 PM,33.8,33.4,99,29.88,10.0,Calm,Calm,-,N/A,,Clear,0,2013-10-19 00:35:00
7:55 PM,32.5,32.2,99,29.88,4.0,Calm,Calm,-,N/A,,Clear,0,2013-10-19 00:55:00
8:15 PM,33.1,33.1,100,29.89,5.0,Calm,Calm,-,N/A,,Clear,0,2013-10-19 01:15:00
8:35 PM,32.7,32.5,99,29.88,7.0,Calm,Calm,-,N/A,,Clear,0,2013-10-19 01:35:00
8:55 PM,32.2,32.0,99,29.88,5.0,Calm,Calm,-,N/A,,Clear,0,2013-10-19 01:55:00
9:15 PM,31.5,31.3,99,29.88,10.0,Calm,Calm,-,N/A,,Clear,0,2013-10-19 02:15:00
9:35 PM,30.7,30.7,100,29.88,1.8,Calm,Calm,-,N/A,,Mist,0,2013-10-19 02:35:00
9:55 PM,30.0,29.8,99,29.87,10.0,Calm,Calm,-,N/A,,Clear,0,2013-10-19 02:55:00
10:15 PM,29.3,29.3,100,29.88,10.0,Calm,Calm,-,N/A,,Clear,0,2013-10-19 03:15:00
10:35 PM,30.6,30.2,99,29.87,5.0,Calm,Calm,-,N/A,,Clear,0,2013-10-19 03:35:00
10:55 PM,29.1,28.9,99,29.86,1.5,Calm,Calm,-,N/A,,Mist,0,2013-10-19 03:55:00
11:15 PM,28.9,28.9,100,29.86,1.0,Calm,Calm,-,N/A,,Mist,0,2013-10-19 04:15:00
11:35 PM,29.3,29.3,100,29.85,1.2,Calm,Calm,-,N/A,,Mist,0,2013-10-19 04:35:00
11:55 PM,29.3,29.3,100,29.85,2.0,Calm,Calm,-,N/A,,Clear,0,2013-10-19 04:55:00